Tracking 25709 objects as of 24-May-2022
HD Live streaming from Space Station
objects crossing your sky now

SL-12 R/B(2)

Track SL-12 R/B(2) now!


NORAD ID: 14117
Int'l Code: 1982-009F
Perigee: 35,417.0 km
Apogee: 35,773.3 km
Inclination: 9.9 °
Period: 1,426.0 minutes
Semi major axis: 41966 km
RCS: 2.3838 m2 (large)
Launch date: February 5, 1982
Source: Commonwealth of Independent States (former USSR) (CIS)
Launch site: TYURATAM MISSILE AND SPACE COMPLEX (TTMTR)

Note: This is a ROCKET BODY
aabbcc
Your satellite tracking list
Your tracking list is empty




NASA's NSSDC Master Catalog

Two Line Element Set (TLE):
1 14117U 82009F   22143.80932784 -.00000292  00000-0  00000-0 0  9990
2 14117   9.8627 308.3179 0042447 158.4157   2.6450  1.00984324108435
Source of the keplerian elements: AFSPC